CW1509 Weather Reports


Display with metric or nautical units.
time (UTC)temp
F
wind
direction
speed
MPH
gust
MPH
rain 1hr
in
rain 24hr
in
rain mn
in
humidity
%
barometer
mb
20260831001930 70 218 0.0 0.0 0.00 0.15 0.15 90 1016.0
20260831001429 70 218 0.0 0.0 0.00 0.15 0.15 90 1015.9
20260831000927 70 218 0.0 0.0 0.00 0.15 0.15 90 1016.1
20260831000425 70 218 0.0 0.0 0.00 0.15 0.15 89 1016.2
20260830235925 70 218 0.0 1.0 0.00 0.15 0.15 89 1016.2
20260830235425 70 218 0.0 1.0 0.00 0.15 0.15 89 1016.2
20260830234926 70 218 0.0 0.0 0.00 0.15 0.15 88 1016.1
20260830234426 70 218 0.0 0.0 0.00 0.15 0.15 88 1016.4
20260830233926 70 218 0.0 0.0 0.00 0.15 0.15 88 1016.5
20260830233508 70 218 0.0 0.0 0.00 0.15 0.15 87 1016.6
20260830232916 70 218 0.0 0.0 0.00 0.15 0.15 87 1016.7
20260830232435 70 218 0.0 0.0 0.00 0.15 0.15 87 1016.9
20260830231915 70 218 0.0 0.0 0.00 0.15 0.15 86 1016.8
20260830231435 70 218 0.0 0.0 0.00 0.15 0.15 86 1016.6
20260830230915 70 218 0.0 0.0 0.01 0.15 0.15 85 1016.6
20260830230414 70 218 0.0 0.0 0.01 0.15 0.15 85 1016.5
20260830225933 70 218 0.0 0.0 0.01 0.15 0.15 84 1016.4
20260830225452 70 218 0.0 3.0 0.01 0.15 0.15 84 1016.2
20260830224930 70 255 0.0 3.0 0.01 0.15 0.15 84 1016.5
20260830224428 71 229 1.0 2.0 0.01 0.15 0.15 84 1016.3
20260830223928 71 180 0.0 2.0 0.01 0.15 0.15 83 1016.2
20260830223428 71 204 1.0 3.0 0.01 0.15 0.15 83 1016.5
20260830222948 71 210 1.0 5.0 0.01 0.15 0.15 83 1016.5
20260830222427 71 209 2.0 5.0 0.01 0.15 0.15 83 1016.7
20260830221927 71 190 0.0 3.0 0.01 0.15 0.15 84 1016.9
20260830221426 72 306 0.0 2.0 0.01 0.15 0.15 83 1017.3
20260830220926 72 254 1.0 6.0 0.00 0.14 0.14 82 1016.9
20260830220445 72 243 2.0 8.0 0.00 0.14 0.14 81 1016.9
20260830215925 72 217 3.0 8.0 0.00 0.14 0.14 80 1016.8
20260830215423 72 254 4.0 7.0 0.00 0.14 0.14 80 1016.7
20260830214924 72 248 3.0 7.0 0.00 0.14 0.14 80 1016.7
20260830214423 73 269 2.0 6.0 0.00 0.14 0.14 80 1017.0
20260830213923 73 225 3.0 8.0 0.00 0.14 0.14 80 1017.1
20260830213421 73 265 2.0 6.0 0.00 0.14 0.14 80 1017.2
20260830212922 74 243 3.0 5.0 0.00 0.14 0.14 82 1017.3
20260830212423 74 258 2.0 6.0 0.00 0.14 0.14 81 1017.2
20260830211923 74 286 1.0 6.0 0.00 0.14 0.14 80 1017.2
20260830211423 75 236 2.0 5.0 0.00 0.14 0.14 80 1016.9
20260830210923 75 250 2.0 7.0 0.00 0.14 0.14 78 1016.9
20260830210442 76 229 3.0 7.0 0.00 0.14 0.14 77 1016.7
20260830205920 76 244 3.0 7.0 0.00 0.14 0.14 75 1016.6
20260830205420 77 244 4.0 6.0 0.00 0.14 0.14 73 1016.8
20260830204921 77 227 3.0 11.0 0.00 0.14 0.14 73 1016.8
20260830204442 78 195 5.0 11.0 0.00 0.14 0.14 73 1017.0
20260830203920 78 234 3.0 6.0 0.00 0.14 0.14 73 1017.1
20260830203421 78 223 2.0 5.0 0.00 0.14 0.14 73 1017.2
20260830202921 78 214 2.0 4.0 0.00 0.14 0.14 73 1017.4
20260830202422 79 263 0.0 3.0 0.00 0.14 0.14 72 1017.6
20260830201921 79 304 0.0 5.0 0.00 0.14 0.14 71 1017.4
20260830201421 79 218 3.0 5.0 0.00 0.14 0.14 70 1017.0
20260830200922 79 243 2.0 4.0 0.00 0.14 0.14 69 1017.2
20260830200422 79 245 1.0 5.0 0.00 0.14 0.14 69 1017.2
20260830195942 79 232 2.0 5.0 0.00 0.14 0.14 68 1017.1
20260830195420 80 254 3.0 7.0 0.00 0.14 0.14 68 1017.0
20260830194921 80 191 2.0 8.0 0.00 0.14 0.14 68 1016.8
20260830194420 80 209 3.0 7.0 0.00 0.14 0.14 66 1016.6
20260830193919 80 232 3.0 5.0 0.00 0.14 0.14 66 1016.5
20260830193419 80 221 2.0 5.0 0.00 0.14 0.14 66 1016.5
20260830192919 80 234 3.0 8.0 0.00 0.14 0.14 66 1016.4
20260830192418 80 234 5.0 8.0 0.00 0.14 0.14 64 1016.3
20260830191919 80 246 3.0 8.0 0.00 0.14 0.14 65 1016.2
20260830191441 81 215 5.0 8.0 0.00 0.14 0.14 64 1016.3
20260830190920 81 161 3.0 8.0 0.00 0.14 0.14 66 1016.6
20260830190435 81 192 4.0 9.0 0.00 0.14 0.14 66 1016.7
20260830185954 80 180 3.0 9.0 0.00 0.14 0.14 67 1016.6
20260830185453 80 202 5.0 9.0 0.00 0.14 0.14 68 1016.7
20260830184930 80 235 2.0 7.0 0.00 0.14 0.14 71 1016.7
20260830184428 80 238 2.0 8.0 0.00 0.14 0.14 71 1016.7
20260830183926 80 226 3.0 11.0 0.00 0.14 0.14 72 1016.6
20260830183425 79 135 4.0 13.0 0.00 0.14 0.14 71 1016.8
20260830182925 79 243 3.0 9.0 0.00 0.14 0.14 73 1016.9
20260830182423 79 202 5.0 9.0 0.00 0.14 0.14 71 1016.9
20260830181923 79 232 3.0 8.0 0.00 0.14 0.14 72 1017.0
20260830181422 78 238 4.0 8.0 0.00 0.14 0.14 73 1017.0
20260830180921 78 215 3.0 10.0 0.00 0.14 0.14 75 1016.9
20260830180421 77 224 3.0 10.0 0.00 0.14 0.14 76 1016.8
20260830175920 77 192 3.0 7.0 0.00 0.14 0.14 76 1016.7
20260830175418 77 242 3.0 11.0 0.00 0.14 0.14 76 1016.6
20260830174937 77 190 3.0 11.0 0.00 0.14 0.14 75 1016.5
20260830174456 77 220 1.0 5.0 0.00 0.14 0.14 77 1016.7
20260830173954 76 190 1.0 7.0 0.00 0.14 0.14 77 1016.7
20260830173452 76 190 1.0 7.0 0.00 0.14 0.14 78 1016.6
20260830172930 76 162 2.0 8.0 0.00 0.14 0.14 81 1016.6
20260830172428 75 134 1.0 4.0 0.00 0.14 0.14 82 1016.6
20260830171926 74 98 1.0 4.0 0.00 0.14 0.14 83 1016.7
20260830171426 74 179 2.0 6.0 0.00 0.14 0.14 84 1016.9
20260830170927 73 194 1.0 5.0 0.00 0.14 0.14 87 1017.1
20260830170428 72 144 0.0 6.0 0.00 0.14 0.14 88 1017.1
20260830165947 72 174 1.0 7.0 0.00 0.14 0.14 88 1017.3
20260830165426 71 177 4.0 7.0 0.00 0.14 0.14 89 1017.5
20260830164926 71 190 2.0 6.0 0.00 0.14 0.14 91 1017.5
20260830164446 70 119 0.0 4.0 0.00 0.14 0.14 92 1017.8
20260830163945 70 168 2.0 4.0 0.00 0.14 0.14 91 1018.1
20260830163424 70 176 0.0 4.0 0.00 0.14 0.14 92 1018.2
20260830162924 69 182 0.0 3.0 0.00 0.14 0.14 92 1018.2
20260830162424 69 188 1.0 5.0 0.00 0.14 0.14 92 1018.3
20260830161925 69 184 1.0 6.0 0.01 0.14 0.14 92 1018.2
20260830161445 69 186 1.0 6.0 0.01 0.14 0.14 93 1018.2
20260830160943 69 139 1.0 4.0 0.01 0.14 0.14 93 1018.2
20260830160422 68 196 1.0 3.0 0.01 0.14 0.14 93 1018.2
20260830155921 68 174 0.0 3.0 0.02 0.14 0.14 93 1018.1
20260830155417 68 194 0.0 3.0 0.02 0.14 0.14 92 1018.1
20260830154937 67 176 0.0 3.0 0.02 0.14 0.14 92 1018.1
20260830154455 67 360 0.0 3.0 0.02 0.14 0.14 92 1018.2
20260830153933 67 150 0.0 3.0 0.03 0.14 0.14 92 1018.2
20260830153433 67 193 0.0 3.0 0.03 0.14 0.14 91 1018.3
20260830152933 67 168 0.0 3.0 0.03 0.14 0.14 91 1018.3
20260830152432 67 157 0.0 3.0 0.03 0.14 0.14 91 1018.5
20260830151931 67 167 0.0 0.0 0.03 0.13 0.13 91 1018.8
20260830151431 67 180 0.0 0.0 0.04 0.13 0.13 91 1019.1
20260830150931 67 180 0.0 0.0 0.04 0.13 0.13 91 1019.2
20260830150431 67 180 0.0 0.0 0.05 0.13 0.13 90 1019.6
20260830145932 67 180 0.0 2.0 0.04 0.12 0.12 90 1019.6
20260830145433 67 180 0.0 2.0 0.04 0.12 0.12 90 1019.5
20260830144933 67 187 0.0 1.0 0.05 0.12 0.12 90 1019.5
20260830144452 68 184 0.0 0.0 0.05 0.12 0.12 90 1019.6
20260830143931 68 184 0.0 0.0 0.05 0.11 0.11 90 1019.5
20260830143431 68 213 0.0 3.0 0.05 0.11 0.11 90 1019.4
20260830142930 68 213 0.0 3.0 0.05 0.11 0.11 90 1019.2
20260830142431 68 207 0.0 0.0 0.05 0.11 0.11 90 1019.4
20260830141931 68 207 0.0 0.0 0.04 0.10 0.10 89 1019.7
20260830141432 68 207 0.0 0.0 0.03 0.09 0.09 89 1019.8
20260830140931 68 207 0.0 0.0 0.03 0.09 0.09 89 1019.7
20260830140450 68 207 0.0 0.0 0.02 0.08 0.08 89 1019.8
20260830135947 68 206 0.0 0.0 0.02 0.08 0.08 88 1019.7
20260830135426 68 360 0.0 0.0 0.02 0.08 0.08 88 1019.7
20260830134923 68 360 0.0 0.0 0.01 0.07 0.07 88 1019.5
20260830134441 68 360 0.0 0.0 0.01 0.07 0.07 88 1019.5
20260830133919 68 360 0.0 0.0 0.00 0.06 0.06 87 1019.5
20260830133417 68 360 0.0 0.0 0.00 0.06 0.06 87 1019.4
20260830132916 68 207 0.0 0.0 0.00 0.06 0.06 87 1019.3
20260830132416 68 201 0.0 0.0 0.00 0.06 0.06 87 1019.2
20260830131915 68 201 0.0 0.0 0.00 0.06 0.06 87 1019.2
20260830131415 68 201 0.0 0.0 0.00 0.06 0.06 87 1019.0
20260830130914 68 201 0.0 0.0 0.00 0.06 0.06 87 1018.8
20260830130434 68 201 0.0 0.0 0.00 0.06 0.06 87 1018.7
20260830125915 68 201 0.0 0.0 0.00 0.06 0.06 87 1018.6
20260830125415 68 201 0.0 0.0 0.00 0.06 0.06 87 1018.5
20260830124933 67 188 0.0 0.0 0.00 0.06 0.06 87 1018.4
20260830124432 67 188 0.0 0.0 0.00 0.06 0.06 87 1018.3
20260830123932 67 229 0.0 0.0 0.00 0.06 0.06 87 1018.3
20260830123431 67 229 0.0 0.0 0.00 0.06 0.06 87 1018.3
20260830122931 67 229 0.0 0.0 0.00 0.06 0.06 88 1018.2
20260830122448 67 187 0.0 0.0 0.00 0.06 0.06 88 1018.1
20260830121948 67 187 0.0 0.0 0.00 0.06 0.06 88 1018.1
20260830121428 67 187 0.0 0.0 0.00 0.06 0.06 88 1017.9
20260830120928 67 360 0.0 0.0 0.00 0.06 0.06 89 1017.9
20260830120446 67 360 0.0 0.0 0.00 0.06 0.06 88 1017.7
20260830115925 67 360 0.0 0.0 0.00 0.06 0.06 89 1017.6
20260830115444 66 360 0.0 0.0 0.00 0.06 0.06 89 1017.6
20260830114920 66 360 0.0 0.0 0.00 0.06 0.06 89 1017.5
20260830114419 66 178 0.0 0.0 0.00 0.06 0.06 89 1017.3
20260830113918 66 360 0.0 0.0 0.00 0.06 0.06 89 1017.2
20260830113419 66 360 0.0 0.0 0.00 0.06 0.06 89 1017.1
20260830112940 66 360 0.0 0.0 0.00 0.06 0.06 89 1017.0
20260830112416 66 360 0.0 3.0 0.00 0.06 0.06 89 1017.0
20260830111916 66 360 0.0 3.0 0.00 0.06 0.06 89 1017.0
20260830111416 66 360 0.0 1.0 0.00 0.06 0.06 89 1016.7
20260830110930 66 360 0.0 3.0 0.00 0.06 0.06 89 1016.9
20260830110431 66 360 0.0 3.0 0.00 0.06 0.06 89 1016.9
20260830105931 66 360 0.0 3.0 0.00 0.06 0.06 89 1016.9
20260830105428 66 360 0.0 1.0 0.00 0.06 0.06 89 1016.9
20260830104925 66 360 0.0 2.0 0.00 0.06 0.06 89 1016.9
20260830104420 66 360 0.0 2.0 0.00 0.06 0.06 89 1017.0
20260830103921 66 360 1.0 2.0 0.00 0.06 0.06 89 1017.1
20260830103440 66 360 0.0 2.0 0.00 0.06 0.06 89 1017.1
20260830102918 66 360 0.0 2.0 0.01 0.06 0.06 89 1017.2
20260830102418 66 360 0.0 2.0 0.03 0.06 0.06 89 1017.0
20260830101917 66 360 0.0 2.0 0.04 0.06 0.06 88 1017.0
20260830101417 66 360 0.0 3.0 0.05 0.06 0.06 88 1016.8
20260830100916 66 360 0.0 3.0 0.05 0.06 0.06 88 1016.8
20260830100433 66 360 0.0 3.0 0.05 0.06 0.06 88 1016.9
20260830095933 66 360 0.0 0.0 0.05 0.06 0.06 87 1017.0
20260830095431 67 360 0.0 2.0 0.05 0.06 0.06 87 1017.2
20260830094952 67 360 0.0 3.0 0.05 0.06 0.06 87 1017.3
20260830094430 67 360 0.0 3.0 0.05 0.06 0.06 87 1017.1
20260830093928 67 360 0.0 3.0 0.06 0.06 0.06 86 1017.1
20260830093426 67 360 0.0 4.0 0.06 0.06 0.06 86 1016.9
20260830092925 67 360 1.0 4.0 0.05 0.05 0.05 85 1017.1
20260830092425 67 360 1.0 2.0 0.03 0.03 0.03 84 1017.4
20260830091922 68 360 0.0 2.0 0.02 0.02 0.02 84 1017.7
20260830091422 68 360 0.0 3.0 0.01 0.01 0.01 83 1017.7
20260830090922 68 360 1.0 3.0 0.01 0.01 0.01 83 1018.1
20260830090421 68 360 0.0 3.0 0.01 0.01 0.01 82 1018.1
20260830085940 68 360 0.0 1.0 0.01 0.01 0.01 82 1018.1
20260830085418 69 360 0.0 1.0 0.01 0.01 0.01 81 1018.2
20260830084919 69 360 0.0 0.0 0.01 0.01 0.01 81 1018.3
20260830084419 69 360 0.0 0.0 0.01 0.01 0.01 81 1018.1
20260830083937 69 360 0.0 0.0 0.00 0.00 0.00 80 1018.2
20260830083457 69 189 0.0 0.0 0.00 0.00 0.00 79 1018.2
20260830082955 69 189 0.0 0.0 0.00 0.00 0.00 79 1018.1
20260830082434 69 189 0.0 2.0 0.00 0.00 0.00 79 1018.2
20260830081955 70 189 0.0 2.0 0.00 0.00 0.00 78 1018.2
20260830081434 70 189 0.0 2.0 0.00 0.00 0.00 78 1018.2
20260830080934 70 184 1.0 2.0 0.00 0.00 0.00 76 1018.0
20260830080434 70 227 0.0 2.0 0.00 0.00 0.00 76 1018.0
20260830075931 70 182 0.0 0.0 0.00 0.00 0.00 76 1017.7
20260830075430 70 182 0.0 1.0 0.00 0.00 0.00 76 1017.6
20260830074930 70 182 0.0 0.0 0.00 0.00 0.00 75 1017.7
20260830074430 70 182 0.0 2.0 0.00 0.00 0.00 75 1017.6
20260830073931 70 182 0.0 2.0 0.00 0.00 0.00 75 1017.6
20260830073431 70 188 0.0 0.0 0.00 0.00 0.00 74 1017.6
20260830072932 70 188 0.0 2.0 0.00 0.00 0.00 74 1017.6
20260830072430 70 182 0.0 1.0 0.00 0.00 0.00 74 1017.5
20260830071930 71 188 0.0 2.0 0.00 0.00 0.00 73 1017.4
20260830071431 71 188 1.0 3.0 0.00 0.00 0.00 73 1017.6
20260830070929 71 182 0.0 3.0 0.00 0.00 0.00 73 1017.5
20260830070427 71 182 0.0 3.0 0.00 0.00 0.00 72 1017.5
20260830065927 71 176 1.0 4.0 0.00 0.00 0.00 72 1017.5
20260830065427 71 196 1.0 4.0 0.00 0.00 0.00 73 1017.6
20260830064926 71 188 0.0 4.0 0.00 0.00 0.00 73 1017.5
20260830064424 71 182 0.0 1.0 0.00 0.00 0.00 73 1017.5
20260830063923 71 182 0.0 1.0 0.00 0.00 0.00 73 1017.7
20260830063423 71 182 0.0 0.0 0.00 0.00 0.00 74 1017.7
20260830062922 71 182 0.0 0.0 0.00 0.00 0.00 74 1017.6
20260830062423 71 182 0.0 0.0 0.00 0.00 0.00 74 1017.8
20260830061922 71 182 0.0 0.0 0.00 0.00 0.00 74 1018.0
20260830061423 71 182 0.0 0.0 0.00 0.00 0.00 74 1018.0
20260830060924 71 182 0.0 2.0 0.00 0.00 0.00 74 1017.9
20260830060424 71 182 0.0 3.0 0.00 0.00 0.00 74 1018.0
20260830055924 71 174 0.0 2.0 0.00 0.00 0.00 74 1018.0
20260830055442 71 172 0.0 2.0 0.00 0.00 0.00 74 1018.3
20260830054919 71 184 0.0 1.0 0.00 0.00 0.00 74 1018.3
20260830054439 71 172 0.0 2.0 0.00 0.00 0.00 75 1018.2
20260830053917 71 166 0.0 0.0 0.00 0.00 0.00 75 1018.2
20260830053416 71 166 0.0 0.0 0.00 0.00 0.00 75 1018.3
20260830052916 71 166 0.0 2.0 0.00 0.00 0.00 75 1018.3
20260830052434 71 166 0.0 2.0 0.00 0.00 0.00 75 1018.3
20260830051949 71 147 0.0 1.0 0.00 0.00 0.00 75 1018.5
20260830051428 71 170 0.0 2.0 0.00 0.00 0.00 76 1018.4
20260830050949 71 170 0.0 2.0 0.00 0.00 0.00 75 1018.6
20260830050448 71 190 0.0 1.0 0.00 0.00 0.00 75 1018.5
20260830045926 71 179 0.0 2.0 0.00 0.00 0.00 76 1018.5
20260830045425 71 179 0.0 3.0 0.00 0.00 0.00 76 1018.5
20260830044925 71 186 1.0 3.0 0.00 0.00 0.00 76 1018.6
20260830044424 71 186 0.0 0.0 0.00 0.00 0.00 76 1018.6
20260830043923 71 186 0.0 0.0 0.00 0.00 0.00 76 1018.6
20260830043421 71 186 0.0 1.0 0.00 0.00 0.00 76 1018.6
20260830042921 71 186 0.0 1.0 0.00 0.00 0.00 76 1018.5
20260830042421 71 186 0.0 1.0 0.00 0.00 0.00 77 1018.5
20260830041940 71 186 0.0 1.0 0.00 0.00 0.00 77 1018.5
20260830041500 71 186 0.0 1.0 0.00 0.00 0.00 77 1018.6
20260830040917 71 186 0.0 2.0 0.00 0.00 0.00 77 1018.7
20260830040416 71 186 0.0 2.0 0.00 0.00 0.00 77 1018.7
20260830035915 71 186 0.0 1.0 0.00 0.00 0.00 77 1018.6
20260830035414 71 170 0.0 0.0 0.00 0.00 0.00 77 1018.5
20260830034935 71 170 0.0 1.0 0.00 0.00 0.00 78 1018.5
20260830034432 71 170 0.0 1.0 0.00 0.00 0.00 77 1018.5
20260830033933 71 170 0.0 0.0 0.00 0.00 0.00 78 1018.6
20260830033431 71 170 0.0 2.0 0.00 0.00 0.00 78 1018.6
20260830032930 71 170 0.0 2.0 0.00 0.00 0.00 78 1018.6
20260830032449 71 175 0.0 1.0 0.00 0.00 0.00 79 1018.5
20260830031928 71 175 0.0 0.0 0.00 0.00 0.00 79 1018.6
20260830031427 71 174 0.0 0.0 0.00 0.00 0.00 80 1018.5
20260830030927 71 174 0.0 1.0 0.00 0.00 0.00 80 1018.5
20260830030426 71 174 0.0 1.0 0.00 0.00 0.00 80 1018.5
20260830025927 71 180 0.0 0.0 0.00 0.00 0.00 80 1018.6
20260830025426 71 180 0.0 0.0 0.00 0.00 0.00 81 1018.7
20260830024924 71 180 0.0 0.0 0.00 0.00 0.00 81 1018.6
20260830024425 71 180 0.0 0.0 0.00 0.00 0.00 81 1018.5
20260830023925 71 180 0.0 0.0 0.00 0.00 0.00 80 1018.5
20260830023426 71 180 0.0 0.0 0.00 0.00 0.00 80 1018.6
20260830022925 71 180 0.0 0.0 0.00 0.00 0.00 80 1018.6
20260830022425 71 180 0.0 0.0 0.00 0.00 0.00 80 1018.5
20260830021923 71 180 0.0 0.0 0.00 0.00 0.00 80 1018.5
20260830021423 71 180 0.0 0.0 0.00 0.00 0.00 80 1018.3
20260830020923 72 180 0.0 0.0 0.00 0.00 0.00 80 1018.3
20260830020423 72 180 0.0 0.0 0.00 0.00 0.00 79 1018.4
20260830015924 72 180 0.0 0.0 0.00 0.00 0.00 79 1018.6
20260830015446 72 180 0.0 0.0 0.00 0.00 0.00 79 1018.5
20260830014926 72 180 0.0 0.0 0.00 0.00 0.00 79 1018.6
20260830014427 72 180 0.0 0.0 0.00 0.00 0.00 79 1018.6
20260830013927 72 204 0.0 1.0 0.00 0.00 0.00 78 1018.5
20260830013427 72 196 0.0 1.0 0.00 0.00 0.00 78 1018.4
20260830012928 72 111 0.0 0.0 0.00 0.00 0.00 78 1018.3
20260830012427 72 109 0.0 0.0 0.00 0.00 0.00 78 1018.2
20260830011926 73 109 0.0 0.0 0.00 0.00 0.00 78 1018.0
20260830011424 73 125 0.0 0.0 0.00 0.00 0.00 78 1018.2
20260830010925 73 125 0.0 0.0 0.00 0.00 0.00 78 1018.3
20260830010427 73 180 0.0 0.0 0.00 0.00 0.00 77 1018.3
20260830005928 73 180 0.0 0.0 0.00 0.00 0.00 76 1018.4
20260830005428 74 180 0.0 0.0 0.00 0.00 0.00 77 1018.6
20260830004930 74 180 0.0 0.0 0.00 0.00 0.00 77 1018.5
20260830004430 74 180 0.0 0.0 0.00 0.00 0.00 76 1018.6
20260830003951 74 180 0.0 0.0 0.00 0.00 0.00 76 1018.7
20260830003431 74 180 0.0 0.0 0.00 0.00 0.00 74 1018.9
20260830002914 75 180 0.0 0.0 0.00 0.00 0.00 74 1019.0
20260830002417 75 180 0.0 0.0 0.00 0.00 0.00 73 1019.1